Location: Brompton
(51.4000°N, 0.5333°E)
Time: 15:24:58
(UTC+00:00)

Cosmos 1975 - Pass Details

Date: 11 May 2021
Orbit: 541 x 560 km, 82.5° (Epoch: 23 June)

Event Time Altitude Azimuth Distance (km) Brightness Sun altitude
Rises 22:53:10 0° 350° (N) 2,719 8.0 -19.2°
Reaches altitude 10° 22:55:20 10° 351° (N) 1,820 6.7 -19.3°
Maximum altitude 22:59:20 81° 80° (E) 556 2.7 -19.4°
Enters shadow 23:00:09 55° 156° (SSE) 659 2.8 -19.5°
